Terminal Aerodrome Forecast
Issued by NWS

Home | Current Version | Previous Version | Text Only | Print | Product List | Glossary On
Versions: 1 2 3 4 5 6 7 8 9 10 11 12 13 14 15 16 17 18 19 20 21 22 23 24 25 26 27 28 29 30 31 32 33 34 35 36 37 38 39 40 41 42 43 44 45 46 47 48 49 50
000
FTUS41 KCTP 031745
TAFJST
TAF
KJST 031745Z 0318/0418 17012KT P6SM BKN050 BKN110
     FM032000 18012G20KT 1 1/2SM -FZRA BR OVC005 WS020/25045KT
     FM040200 23012G20KT 2SM -RA BR OVC003 WS020/27050KT
     FM040900 26010KT 4SM -RA BR OVC003=

USA.gov is the U.S. government's official web portal to all federal, state and local government web resources and services.